星链-35364(STARLINK-35364)

导读

STARLINK-35364是美国SpaceX星链星座的成员卫星,于2025年9月29日发射升空。星链系统是全球低轨卫星互联网星座,旨在为全球提供覆盖偏远地区的高速互联网服务,该卫星承担星链组网中部分通信传输任务,依托低轨轨道优势,具备更低的通信延迟,助力星链星座扩展全球网络覆盖范围。

Basic Information
目录编号:
65840
目录名称:
STARLINK-35364
国际标识:
2025-221T
轨道中心:
EARTH
卫星名称:
星链-35364
卫星全名:
星链-35364(STARLINK-35364)
卫星状态:
在轨 (已飞行340 天)
发射日期:
2025-09-29 UTC
国别 :
美国 (US)
星等 :
--
Orbit Information
数据来源 国际轨道数据
星历时间: 2026-09-04T01:38:20+0800
18小时前
查看轨道信息
半长轴: 6840.823km
偏心率: 0.0001441
轨道倾角: 53.160°
近地点辐角 62.899°
升交点赤经 337.746°
平近点角 297.216°
近地点: 461.7km
远地点: 463.672km
周期: 93.847分钟
每日圈数: 15.34406
Detailed Information
固有亮度:
5
最大亮度:
2.5
卫星平台:
Starlink V1.0
覆盖范围:
全球
运营商:
太空探索技术公司
运营商所在国:
美国
制造商(研发单位):
太空探索技术公司
制造商所在国:
美国
使用方式:
暂无
Satellite Introduction
Starlink 计划是 SpaceX 推出的全球卫星互联网项目,通过发射低轨道卫星,为全球尤其是偏远地区提供高速、低延迟的互联网服务。自 2019 年起,Starlink 已部署数千颗卫星,旨在缩小全球数字鸿沟,推动互联网普及。该项目还为军事、航空等行业提供通信支持,带来广泛经济效益。
2D Orbit Map
3D Orbit Map
Orbit Altitude Analysis Chart
Orbit Inclination Analysis Chart
Orbit Comprehensive Analysis Chart
View Comprehensive Chart
Conjunction Data List
Event ID Objects TCA Miss Dist (km) Collision Risk Probability Collision Risk Index (CRI) Action
CDM_260829-152405-256306-584021
2026-08-29T
15:24:13+0000
2.694 km
极远距离
9.836073E-7 极低风险 0.35
CDM_260905-012205-254906-584021
2026-09-05T
01:22:50+0000
3.000 km
极远距离
8.335547E-7 极低风险 0.33